[[{"header":{"parameterUnit":"m.s-1","parameterCategory":1,"la1":30.2991,"la2":30.254,"lo1":-89.0895,"lo2":-89.0444,"dy":0.0017,"dx":0.0017,"nx":28,"ny":28,"refTime":"2024-08-16T09:00:00:Z","depth":0,"parameterNumber":2,"parameterNumberName":"U-component_of_WINDS"},"data":[0,0,0,0,0,0,0,0,0,0,0,0,0,0,0,0,0,0,0,0,0,0,0,0,0,0,0,0,0,0,0,0,0,0,0,0,0,0,0,0,0,0,0,0,0,0,0,0,0,0,0,0,0,0,0,0,0,0,0.297,0.297,0,0.2963,0.2963,0.2963,0.2963,0.2963,0.2963,0.2963,0.2955,0.2955,0.2954,0,0,0,0,0,0,0,0,0,0,0,0,0,0.2981,0.2981,0.297,0.297,0.297,0.2963,0.2963,0.2963,0.2963,0.2963,0.2963,0.2963,0.2955,0.2955,0.2954,0,0,0,0,0,0,0,0,0,0,0,0,0,0.2976,0.2981,0.297,0.2969,0.2969,0.2963,0.2963,0.2963,0.2963,0.2963,0.2963,0.2963,0.2955,0.2955,0.2954,0.2949,0,0,0.2953,0.2953,0,0,0,0,0,0,0,0,0.2976,0.2975,0.2969,0.2969,0.2969,0.2964,0.2964,0.2958,0.2963,0.2965,0.2963,0.2963,0.2958,0.2957,0.2955,0.2949,0.2948,0.2953,0.2953,0.2952,0.2952,0,0,0,0,0,0,0,0.2976,0.2975,0.2967,0.2969,0.2969,0.2968,0.2967,0.2963,0.2961,0.2965,0.2965,0.2964,0.2958,0.2956,0.2955,0.2948,0.2953,0.2953,0.2952,0.2952,0.2934,0.2934,0,0,0,0,0,0,0.2977,0.2976,0.2967,0.2967,0.2973,0.2968,0.2967,0.2965,0.2961,0.296,0.2964,0.2964,0.2957,0.2956,0.2955,0.2947,0.2952,0.2952,0.2952,0.2934,0.2934,0.2934,0,0,0,0,0,0,0.2977,0.2976,0.2968,0.2971,0.297,0.2968,0.2965,0.2965,0.2963,0.296,0.2959,0.2963,0.2957,0.2956,0.295,0.2947,0.2952,0.2951,0.2935,0.2934,0.2934,0.2932,0,0,0,0,0,0,0.2978,0.2976,0.2975,0.2971,0.297,0.2963,0.2965,0.2965,0.2963,0.2963,0.2959,0.2958,0.2957,0.2951,0.295,0.2946,0.2951,0.2935,0.2935,0.2934,0.2932,0.2932,0.2931,0,0,0,0,0,0.2978,0.2975,0.2975,0.2974,0.2968,0.2963,0.2962,0.2961,0.2962,0.296,0.2958,0.2958,0.2947,0.295,0.2949,0.2945,0.2935,0.2935,0.2934,0.2933,0.2932,0.2931,0,0,0,0,0,0,0.2979,0.2975,0.2974,0.297,0.2967,0.2963,0.2961,0.2961,0.2957,0.2957,0.2955,0.2954,0.2948,0.2946,0.295,0.2939,0.2941,0.2941,0.294,0.294,0.2939,0.2939,0.2951,0,0,0,0,0,0.2978,0.2975,0.2971,0.2968,0.2966,0.2964,0.2962,0.2961,0.2957,0.2956,0.2953,0.295,0.2945,0.2942,0.2938,0.2932,0.293,0.2929,0.2928,0.2928,0.2927,0.2922,0.292,0.2932,0.2932,0.2932,0,0,0.2977,0.2975,0.2973,0.2968,0.2965,0.2961,0.2963,0.2959,0.2955,0.2955,0.295,0.2947,0.2943,0.2936,0.2934,0.2935,0.2923,0.2927,0.2927,0.2926,0.2921,0.292,0.2919,0.2932,0.2932,0.2932,0,0,0.2974,0.2972,0.2968,0.2965,0.2961,0.2959,0.2958,0.2954,0.2952,0.2946,0.2946,0.2941,0.2934,0.2931,0.2928,0.2921,0.292,0.2919,0.2916,0.2911,0.291,0.2909,0.2905,0.2904,0.2919,0.2919,0.2919,0,0.2973,0.2967,0.2966,0.2961,0.2959,0.2958,0.2953,0.295,0.2945,0.2943,0.2944,0.2934,0.2931,0.2923,0.2921,0.2919,0.2917,0.292,0.291,0.2909,0.2908,0.2905,0.2903,0.2919,0.2919,0.2919,0.2919,0,0.2966,0.2962,0.2959,0.2954,0.2951,0.2946,0.2943,0.294,0.2939,0.2936,0.2929,0.2926,0.292,0.2918,0.2917,0.2909,0.291,0.2911,0.2913,0.2907,0.2903,0.2902,0.2918,0.2918,0.2918,0.2918,0,0,0.2963,0.2956,0.2955,0.2952,0.2946,0.2943,0.2937,0.2932,0.2928,0.2924,0.2919,0.2912,0.2912,0.2909,0.2908,0.2903,0.2896,0.2904,0.2904,0.2902,0.2885,0.2883,0.2882,0.2895,0.2895,0.2895,0.2885,0,0.2958,0.2949,0.2947,0.2939,0.2934,0.2933,0.2928,0.2923,0.292,0.2915,0.2912,0.2907,0.2908,0.2906,0.2901,0.2898,0.2892,0.2898,0.2889,0.2889,0.289,0.288,0.2879,0.287,0.2883,0.2883,0.2883,0,0.2952,0.2947,0.2938,0.2932,0.293,0.2925,0.2919,0.2915,0.2909,0.2907,0.2902,0.2901,0.2894,0.2897,0.2886,0.2891,0.2887,0.2884,0.2884,0.2882,0.2885,0.2878,0.2867,0.2865,0.2881,0.2881,0.2881,0,0.2949,0.2941,0.2934,0.2931,0.2924,0.2921,0.2917,0.2912,0.2908,0.2902,0.2899,0.2892,0.2889,0.2883,0.2879,0.2882,0.2869,0.2872,0.2866,0.2866,0.2863,0.2863,0.2851,0.2862,0.2862,0.2862,0.2862,0,0.2944,0.2938,0.2932,0.2928,0.2921,0.2918,0.2911,0.2908,0.2902,0.2897,0.2895,0.2889,0.2885,0.2879,0.2875,0.2866,0.2865,0.2862,0.2862,0.2862,0.2862,0.2859,0.2859,0.2862,0.2862,0.2862,0.2862,0,0.294,0.2936,0.2928,0.2921,0.2919,0.2915,0.2908,0.2903,0.29,0.2892,0.289,0.2885,0.2877,0.2872,0.2863,0.286,0.285,0.285,0.2852,0.2851,0.2845,0.2846,0.283,0.2827,0.2841,0.2841,0.2841,0,0.2936,0.2932,0.2924,0.292,0.2916,0.291,0.2906,0.2902,0.2897,0.2889,0.2885,0.2877,0.287,0.2857,0.2852,0.2844,0.2843,0.2838,0.2842,0.2842,0.2841,0.2841,0.284,0.2837,0.2837,0.2837,0.2837,0,0.293,0.2928,0.2922,0.2914,0.2909,0.2903,0.2897,0.2894,0.2889,0.2883,0.2875,0.2869,0.2859,0.285,0.2841,0.2837,0.2835,0.2835,0.2833,0.2834,0.2834,0.2832,0.2849,0.2836,0.2836,0.2836,0.2836,0.2836,0.2926,0.2921,0.2914,0.2907,0.2902,0.2896,0.289,0.2885,0.2878,0.2869,0.2867,0.2858,0.285,0.2838,0.2833,0.2825,0.2826,0.2824,0.2823,0.2822,0.2821,0.2836,0.2824,0.2824,0.2824,0.2824,0.2824,0,0.2918,0.2913,0.2907,0.2898,0.2892,0.2891,0.2883,0.2878,0.287,0.2863,0.2856,0.2845,0.2836,0.283,0.282,0.2815,0.2814,0.2812,0.2812,0.2811,0.2822,0.2824,0.2813,0.2813,0.2813,0.2813,0.2813,0.2813,0.2914,0.2905,0.2902,0.289,0.2885,0.2876,0.2871,0.2865,0.2859,0.2847,0.284,0.2835,0.2828,0.2818,0.2809,0.2807,0.2803,0.2801,0.2799,0.2809,0.2811,0.2812,0.2813,0.2801,0.2801,0.2789,0.2789,0.2789]},{"header":{"parameterUnit":"m.s-1","parameterCategory":1,"la1":30.2991,"la2":30.254,"lo1":-89.0895,"lo2":-89.0444,"dy":0.0017,"dx":0.0017,"nx":28,"ny":28,"refTime":"2024-08-16T09:00:00:Z","depth":0,"parameterNumber":3,"parameterNumberName":"V-component_of_WINDS"},"data":[0,0,0,0,0,0,0,0,0,0,0,0,0,0,0,0,0,0,0,0,0,0,0,0,0,0,0,0,0,0,0,0,0,0,0,0,0,0,0,0,0,0,0,0,0,0,0,0,0,0,0,0,0,0,0,0,0,0,3.4244,3.4244,0,3.4265,3.4265,3.4265,3.4213,3.4211,3.421,3.4208,3.4229,3.4231,3.4233,0,0,0,0,0,0,0,0,0,0,0,0,0,3.4156,3.4158,3.4244,3.4244,3.4244,3.4265,3.4265,3.4265,3.4213,3.4211,3.4209,3.4207,3.4228,3.4231,3.4233,0,0,0,0,0,0,0,0,0,0,0,0,0,3.4187,3.4158,3.4244,3.4221,3.4219,3.4265,3.4265,3.4265,3.4214,3.4211,3.4209,3.4206,3.4227,3.423,3.4233,3.4302,0,0,3.4243,3.4244,0,0,0,0,0,0,0,0,3.4185,3.419,3.4224,3.4222,3.422,3.4234,3.4241,3.4278,3.4214,3.4216,3.4208,3.4205,3.4232,3.4235,3.4244,3.4303,3.4304,3.4243,3.4245,3.4246,3.4247,0,0,0,0,0,0,0,3.4183,3.4189,3.4252,3.4224,3.4222,3.4208,3.421,3.4248,3.4238,3.4215,3.4212,3.4215,3.4231,3.4241,3.4244,3.4304,3.4243,3.4246,3.4248,3.4249,3.4417,3.442,0,0,0,0,0,0,3.4184,3.4188,3.4251,3.4253,3.4196,3.4212,3.4214,3.4232,3.4237,3.4235,3.4217,3.4212,3.4237,3.4241,3.4245,3.4323,3.4246,3.4249,3.4251,3.4415,3.4418,3.4421,0,0,0,0,0,0,3.4183,3.419,3.425,3.4219,3.4226,3.4216,3.4237,3.4234,3.4244,3.4238,3.4236,3.423,3.4235,3.4241,3.4288,3.4323,3.4251,3.4254,3.4412,3.4416,3.4419,3.4482,0,0,0,0,0,0,3.418,3.419,3.4217,3.422,3.4228,3.4294,3.4239,3.4236,3.425,3.4244,3.425,3.4248,3.4234,3.4283,3.4291,3.4326,3.4256,3.4408,3.4414,3.4418,3.4477,3.4488,3.4497,0,0,0,0,0,3.4177,3.4234,3.4219,3.4227,3.4261,3.4296,3.43,3.4283,3.4253,3.4279,3.4275,3.4248,3.4319,3.4289,3.4297,3.4334,3.4406,3.4412,3.4418,3.4473,3.4486,3.4497,0,0,0,0,0,0,3.4236,3.4234,3.4217,3.4277,3.4287,3.4287,3.432,3.4298,3.4317,3.431,3.4288,3.429,3.434,3.4342,3.4308,3.4399,3.4357,3.4365,3.4396,3.4409,3.4419,3.4416,3.4259,0,0,0,0,0,3.4256,3.4285,3.4282,3.4335,3.4341,3.433,3.4344,3.433,3.4339,3.4343,3.4343,3.4353,3.4376,3.4393,3.4415,3.4477,3.4477,3.4507,3.4517,3.4525,3.4532,3.4562,3.4575,3.444,3.444,3.444,0,0,3.4297,3.43,3.432,3.4347,3.4353,3.4382,3.4334,3.4368,3.4389,3.4348,3.4392,3.4392,3.4401,3.4456,3.448,3.4459,3.4569,3.4533,3.4539,3.4541,3.457,3.4582,3.4594,3.4444,3.4443,3.4443,0,0,3.4387,3.4393,3.4437,3.4444,3.4453,3.4445,3.4455,3.4459,3.4457,3.4501,3.447,3.4495,3.4538,3.4544,3.4554,3.4644,3.4619,3.4652,3.4704,3.4735,3.4745,3.4754,3.4785,3.4796,3.4659,3.4659,3.4659,0,3.4437,3.4481,3.4462,3.4497,3.4509,3.4473,3.4516,3.4524,3.454,3.4549,3.4525,3.4576,3.458,3.4634,3.4656,3.4666,3.4675,3.4651,3.4745,3.4754,3.4763,3.4791,3.4803,3.4663,3.4662,3.4662,3.4662,0,3.4541,3.4572,3.4606,3.4621,3.4637,3.4676,3.4662,3.468,3.4664,3.4658,3.4701,3.4705,3.4725,3.4738,3.4723,3.4789,3.4776,3.4749,3.4706,3.478,3.4806,3.4817,3.4668,3.4667,3.4666,3.4665,0,0,3.4669,3.4672,3.4685,3.469,3.4697,3.472,3.4757,3.4777,3.4792,3.4804,3.4833,3.4869,3.4844,3.4854,3.484,3.4867,3.4935,3.4836,3.4836,3.4853,3.5006,3.5024,3.5037,3.4919,3.4921,3.4923,3.5004,0,3.4756,3.4819,3.4801,3.4863,3.489,3.4856,3.4887,3.4894,3.489,3.4911,3.4905,3.493,3.4896,3.4902,3.4927,3.4922,3.4965,3.4916,3.4944,3.4946,3.4941,3.5051,3.5072,3.5148,3.5015,3.5016,3.5018,0,3.4866,3.4881,3.4946,3.4946,3.4957,3.4985,3.5001,3.5022,3.5029,3.5023,3.5034,3.5014,3.5048,3.5006,3.5052,3.5019,3.503,3.5029,3.5031,3.5032,3.4985,3.5053,3.5173,3.5183,3.5034,3.5033,3.5032,0,3.495,3.4987,3.5029,3.5036,3.5038,3.5058,3.506,3.5064,3.5077,3.509,3.5098,3.5116,3.5125,3.5139,3.5124,3.5095,3.5171,3.5129,3.5166,3.5167,3.5183,3.5182,3.5304,3.5193,3.5193,3.5193,3.5193,0,3.5048,3.5088,3.5067,3.5093,3.5136,3.5116,3.5159,3.5157,3.516,3.5185,3.5157,3.518,3.5159,3.518,3.5168,3.5207,3.5212,3.5207,3.5203,3.5208,3.5209,3.5214,3.5207,3.5196,3.5195,3.5195,3.5194,0,3.5149,3.5136,3.518,3.5178,3.5178,3.521,3.5207,3.5231,3.5223,3.5254,3.526,3.5248,3.5271,3.5257,3.5281,3.5273,3.5323,3.5313,3.532,3.5317,3.5354,3.535,3.5482,3.5498,3.5379,3.538,3.5381,0,3.5211,3.5241,3.5241,3.5255,3.5258,3.5282,3.5294,3.5274,3.5288,3.5296,3.5318,3.5339,3.5354,3.5392,3.5385,3.5403,3.5392,3.5437,3.5394,3.5398,3.539,3.5387,3.5389,3.5445,3.5446,3.5447,3.5448,0,3.5323,3.5314,3.5333,3.5348,3.5363,3.5375,3.5384,3.5397,3.5377,3.5394,3.5417,3.5429,3.5452,3.5472,3.5486,3.5487,3.5464,3.5462,3.5471,3.5476,3.5478,3.5475,3.5342,3.5459,3.5458,3.5457,3.5456,3.5456,3.5404,3.5428,3.5431,3.5452,3.5457,3.5466,3.5487,3.5481,3.55,3.5517,3.5504,3.5531,3.5535,3.5551,3.5555,3.5575,3.5557,3.5571,3.5574,3.5577,3.5581,3.5477,3.5578,3.5578,3.5577,3.5577,3.5577,0,3.5512,3.5512,3.5531,3.5544,3.556,3.5537,3.5546,3.556,3.5584,3.5589,3.5604,3.563,3.5649,3.5643,3.5659,3.5676,3.5666,3.5681,3.5679,3.5679,3.5598,3.5587,3.5689,3.5689,3.5689,3.5689,3.5689,3.5689,3.557,3.5608,3.56,3.564,3.5639,3.5664,3.5671,3.5678,3.5682,3.5711,3.5727,3.5723,3.5723,3.5739,3.5755,3.5753,3.576,3.5778,3.5772,3.5696,3.5685,3.5674,3.5664,3.578,3.5781,3.5851,3.5852,3.5852]}]]